Location: Grisols
(45.0093°N, 3.1167°E)
Time: 08:34:45
(UTC+00:00)

STARLINK-52 - Pass Details

Date: 21 October 2019
Orbit: 443 x 445 km, 53.0° (Epoch: 20 November)

Event Time Altitude Azimuth Distance (km) Brightness Sun altitude
Rises 18:36:46 0° 302° (WNW) 2,442 8.0 -19.0°
Reaches altitude 10° 18:38:53 10° 303° (WNW) 1,569 6.8 -19.4°
Maximum altitude 18:42:25 89° 208° (SSW) 449 3.1 -20.0°
Enters shadow 18:42:37 79° 129° (SE) 458 3.0 -20.0°
